Zurück zum Katalog

FREGAT DEB

AktivSSO
NORAD 40078·DEBRIS·🇷🇺 Russia

Gestartet Jul 8, 2014 von Baikonur Cosmodrome

Loading…

Nächste Überflüge (nächste 24 Stunden)

TLE

AktuellSource: Space-Track

Epoche: Sep 14, 2026, 08:16 UTC

1 40078U 14037K   26257.34457051  .00000214  00000-0  53756-4 0  9992
2 40078  98.0792 232.3656 0130831 148.9241 211.9780 14.55729032646099

Verfolge FREGAT DEB in Echtzeit mit AllMySat

Download on the App Store